Location: Mount Kobau Star Party
(49.1167°N, 119.7333°W)
Time: 05:25:45
(UTC-07:00)

BlueWalker 3 - Pass Details

Date: 03 March 2024
Orbit: 485 x 495 km, 53.2° (Epoch: 22 April)

Event Time Altitude Azimuth Distance (km) Brightness Sun altitude
Rises 18:28:07 0° 294° (WNW) 2,563 6.9 -7.6°
Reaches altitude 10° 18:30:18 10° 294° (WNW) 1,676 5.8 -8.0°
Maximum altitude 18:34:04 78° 209° (SSW) 501 2.0 -8.6°
Drops below altitude 10° 18:37:49 10° 122° (ESE) 1,662 4.1 -9.2°
Enters shadow 18:38:01 - 122° (ESE) 1,740 4.2 -9.2°
